Wind_Speed
14 13 12 12 12 12 13 14 15 14 14 15 16 17 17 18 18 20 21 20 19 19 19 18 18 19 21 22 21 22 22 22 22 21 21 21 20 20 20 21 21 21 21 21
14 13 12 13 14 15 16 16 16 15 16 16 17 17 17 18 18 19 20 21 20 20 21 20 19 20 21 22 22 22 23 23 22 21 22 21 22 22 22 22 22 22 23 23
14 12 13 13 14 16 16 16 15 15 15 16 18 17 17 17 18 19 20 19 20 20 20 19 20 22 22 22 22 23 23 23 22 22 22 22 23 23 23 23 23 24 24 23
13 13 13 14 15 15 15 15 14 14 16 17 17 18 17 17 17 17 19 19 20 20 20 22 22 22 23 23 22 23 23 22 22 23 23 23 22 23 23 23 23 24 24 23
13 13 14 15 16 16 15 15 15 15 16 17 17 19 17 16 17 17 18 19 19 19 19 21 22 22 23 24 23 24 23 23 23 23 24 24 24 23 22 22 23 23 24 23
11 11 12 14 16 16 15 15 16 16 17 20 18 19 18 17 17 17 18 19 18 19 20 22 23 23 23 23 24 24 23 23 22 23 24 24 24 23 22 22 23 23 23 23
11 11 12 13 13 15 16 17 18 17 17 19 18 20 19 17 16 17 18 19 19 19 20 22 23 23 23 24 24 23 23 23 23 23 24 24 24 23 23 23 23 22 22 22
12 11 11 12 14 15 16 17 17 17 17 17 17 19 18 16 17 17 19 19 19 20 21 22 22 23 23 24 24 22 22 23 23 23 24 24 24 23 22 22 22 22 22 23
12 12 12 13 15 15 15 16 17 17 17 18 18 18 16 17 18 18 19 19 20 21 21 22 22 23 23 24 24 23 22 23 23 24 24 23 22 21 21 21 21 22 22 23
12 13 12 13 14 15 15 15 15 17 18 19 18 17 16 17 18 19 20 20 21 22 23 23 22 22 23 23 24 24 23 23 24 24 24 23 22 21 21 21 22 22 22 23
14 14 13 14 15 14 14 15 15 16 17 18 19 18 17 18 19 20 21 21 21 21 22 23 23 22 22 23 24 22 23 24 24 23 23 23 22 21 21 22 22 22 23 23
15 16 14 13 13 14 15 15 16 17 18 19 20 20 19 19 19 20 20 20 22 22 22 23 23 23 23 23 23 23 24 24 24 24 23 23 22 22 22 22 22 22 22 23
14 15 15 14 14 14 15 15 16 17 18 19 21 21 20 19 20 20 20 21 21 21 22 22 23 23 23 23 23 24 25 25 24 24 24 23 23 22 22 22 22 22 22 22
14 15 15 14 13 14 15 15 16 18 19 20 20 20 20 20 20 20 21 22 22 22 22 23 23 23 23 24 24 25 25 26 25 25 24 24 24 23 23 22 21 21 22 22
16 16 16 15 15 16 16 15 16 17 19 20 20 21 19 19 20 20 21 21 22 22 22 23 24 23 23 25 25 26 26 26 26 26 24 24 24 24 23 22 22 22 22 23
18 19 18 16 16 17 16 16 16 17 18 19 20 19 19 21 21 21 21 22 22 23 24 24 24 25 25 26 26 27 27 26 26 25 24 24 24 24 23 23 23 24 24 24
20 19 19 18 17 17 17 16 17 18 18 19 20 20 20 21 21 21 22 23 24 24 25 24 24 25 27 28 27 27 26 26 25 25 24 24 24 24 24 25 25 25 25 24
21 20 20 19 18 18 17 17 18 17 18 19 20 21 21 21 22 22 23 23 23 24 24 24 25 27 27 27 27 26 26 26 26 25 25 24 25 25 26 27 26 26 24 24
20 20 20 20 19 19 17 18 18 18 19 19 20 21 21 21 22 23 23 23 23 24 24 26 27 28 28 28 27 27 27 27 26 26 26 26 26 26 26 26 26 25 24 24
21 21 21 20 21 20 19 19 19 20 20 20 20 21 21 22 23 23 23 24 25 25 26 27 28 28 28 28 28 28 27 27 27 27 27 27 27 27 26 26 25 24 23 23
21 21 21 21 22 21 20 20 20 21 20 21 21 22 22 22 22 23 24 25 26 26 27 28 28 28 28 28 28 27 27 26 26 27 27 27 27 27 26 25 24 23 22 21
22 22 23 23 24 23 22 22 22 22 21 21 22 23 23 23 24 25 26 27 26 27 27 27 27 27 28 28 27 27 27 26 27 27 26 26 26 26 25 24 24 22 21 20
24 24 24 25 24 24 23 23 23 22 23 23 23 24 24 24 25 26 27 28 27 27 27 27 27 27 28 28 28 28 27 27 27 26 26 26 25 24 24 24 23 21 20 20
25 25 25 25 25 24 24 24 24 24 24 25 25 25 25 26 27 27 27 27 27 27 27 27 27 28 28 27 27 27 27 27 26 26 26 25 25 24 24 23 22 21 20 19
26 25 25 25 24 24 25 25 25 26 26 27 27 27 27 26 26 26 27 27 27 27 27 27 27 28 28 27 27 27 27 26 26 26 26 26 26 25 23 23 22 21 20 19
26 26 27 26 25 25 26 26 27 28 28 27 27 28 27 26 25 26 26 27 27 27 27 28 28 28 28 27 28 28 28 27 27 27 26 26 25 24 23 22 21 21 21 20
Wind_Direction
229 236 243 249 255 261 265 268 269 267 264 273 280 285 292 298 300 308 306 311 313 315 312 313 317 319 318 317 315 315 312 310 306 303 302 300 297 295 292 291 290 289 287 284
232 237 244 250 252 257 260 262 264 263 265 274 279 285 289 296 299 304 310 313 311 313 312 314 314 316 319 318 316 315 313 312 310 306 303 300 297 295 291 290 288 287 286 284
239 239 240 246 250 256 257 262 266 265 264 272 281 284 287 292 297 301 308 312 317 314 312 316 317 319 317 315 314 313 312 311 309 307 305 303 299 294 291 288 285 284 284 283
240 242 246 248 252 255 256 261 263 263 267 268 276 285 286 288 292 297 304 310 313 312 313 316 316 315 316 314 314 314 313 312 309 307 305 303 301 296 291 287 284 283 282 280
245 247 253 254 255 253 256 260 260 264 265 268 271 281 287 288 290 298 302 306 310 311 311 315 315 316 316 316 316 317 315 312 309 307 306 305 302 298 293 289 286 283 282 280
252 251 254 259 257 256 260 265 263 263 266 267 270 278 285 289 290 296 299 302 307 309 309 311 314 315 316 316 317 318 316 313 311 308 308 306 303 301 296 292 289 285 282 280
255 253 255 253 252 253 258 266 270 267 269 270 272 276 281 287 291 297 300 303 305 307 309 312 313 313 316 317 316 317 316 315 313 311 310 309 306 301 297 294 292 288 284 282
257 260 261 260 258 263 268 269 273 276 273 272 273 275 281 287 291 298 300 301 303 306 310 312 312 314 314 316 315 314 316 315 313 311 310 310 307 303 299 295 293 289 287 285
260 264 265 269 268 268 269 268 272 277 276 275 277 281 287 294 296 295 298 302 305 308 310 311 311 313 314 314 315 315 316 315 314 313 312 311 308 304 300 297 293 289 287 287
263 265 264 268 267 265 269 271 270 272 276 276 279 285 294 300 300 297 298 304 309 310 311 310 311 313 313 312 314 314 314 316 316 314 313 311 309 304 302 299 296 292 290 290
263 268 267 266 266 268 271 270 271 275 279 279 281 285 295 300 299 299 304 307 309 309 310 309 310 310 313 314 317 315 316 317 315 312 311 310 308 307 308 305 300 296 294 292
263 266 265 265 265 267 268 271 270 273 277 279 283 288 294 300 301 303 306 307 308 309 310 311 311 314 316 316 317 317 317 318 318 315 311 309 307 307 308 310 305 301 299 297
265 266 267 263 262 265 269 271 271 275 278 282 285 290 293 298 303 303 302 305 308 308 309 311 313 316 316 316 317 318 319 318 318 316 313 311 311 307 308 309 306 304 301 300
267 269 268 265 262 266 271 274 277 281 283 284 285 288 292 295 298 299 298 301 304 306 309 311 313 314 315 317 317 319 321 320 318 315 313 312 313 313 312 310 306 305 302 301
267 269 266 264 263 266 272 276 277 280 283 284 283 284 288 291 293 296 298 299 302 305 308 309 312 311 311 316 317 318 319 319 318 317 315 315 315 315 313 311 309 306 305 304
264 268 268 265 268 272 275 274 274 278 283 285 288 288 287 292 291 293 296 298 302 305 306 307 311 311 310 315 318 317 317 317 317 317 316 315 315 314 313 312 309 307 307 304
264 267 268 266 265 271 275 274 274 277 280 284 287 290 292 291 293 294 294 297 301 304 306 308 310 310 313 315 315 315 316 316 316 316 316 316 316 315 314 313 311 309 308 306
268 268 267 268 267 270 275 273 275 278 281 282 283 286 289 288 290 292 293 296 301 303 304 306 310 312 314 316 316 315 315 315 316 317 318 317 316 315 314 313 313 311 309 306
266 266 266 269 269 271 273 275 278 282 283 282 282 285 289 289 291 293 295 299 301 303 305 308 309 311 314 315 315 314 315 315 315 316 317 315 314 314 313 312 312 311 309 309
262 262 265 268 272 273 275 277 280 284 285 287 287 289 291 290 291 292 294 298 300 303 306 307 308 309 311 312 313 313 314 314 314 314 315 314 314 313 312 312 312 310 309 309
264 263 267 270 272 275 278 279 281 283 286 287 288 291 293 294 294 295 296 297 299 301 303 304 306 308 309 310 311 311 311 311 311 311 312 312 313 312 312 312 312 311 310 310
264 265 269 271 272 275 279 280 281 285 286 287 289 291 292 293 294 295 295 297 299 301 302 303 305 308 310 311 311 310 309 309 309 309 310 310 310 310 311 311 311 310 309 308
262 266 268 269 272 275 277 279 281 283 284 288 290 290 292 293 293 294 295 296 298 299 300 302 305 307 309 310 310 310 310 310 309 309 310 310 310 311 312 312 310 308 307 307
262 265 266 268 270 273 276 277 279 282 285 288 289 290 293 293 294 295 295 295 297 299 301 303 305 306 308 309 309 310 310 310 311 312 311 311 312 312 312 312 311 309 309 307
262 264 266 268 270 272 274 277 279 281 284 287 288 291 292 292 294 295 295 297 298 299 300 302 303 304 306 307 307 308 308 308 309 310 310 311 313 314 313 313 311 309 309 310
261 262 264 266 268 271 275 278 281 283 284 287 288 289 290 291 294 295 296 298 298 298 299 301 302 304 305 306 306 306 307 307 308 309 309 309 310 310 311 311 311 309 308 308
Height
5877 5879 5879 5880 5881 5881 5882 5881 5881 5882 5881 5880 5879 5878 5877 5876 5874 5871 5868 5867 5866 5863 5860 5857 5855 5853 5850 5848 5845 5843 5841 5838 5835 5833 5831 5829 5827 5825 5823 5821 5819 5817 5816 5815
5874 5875 5876 5876 5876 5876 5877 5878 5878 5878 5878 5876 5874 5874 5873 5872 5870 5868 5866 5863 5861 5860 5857 5854 5851 5849 5847 5844 5842 5839 5836 5833 5831 5828 5826 5823 5821 5818 5816 5814 5812 5811 5809 5808
5870 5872 5871 5871 5871 5872 5873 5874 5874 5874 5873 5872 5871 5870 5870 5868 5866 5864 5862 5859 5858 5856 5854 5851 5848 5846 5844 5841 5838 5835 5831 5829 5826 5823 5820 5817 5814 5811 5809 5807 5806 5804 5802 5801
5867 5868 5867 5868 5868 5868 5869 5870 5870 5870 5869 5868 5868 5866 5866 5864 5862 5861 5859 5857 5855 5853 5851 5848 5846 5844 5841 5837 5834 5830 5827 5823 5820 5817 5814 5811 5808 5805 5802 5800 5798 5797 5795 5794
5863 5864 5864 5864 5866 5866 5866 5866 5865 5865 5864 5864 5863 5862 5862 5860 5858 5857 5855 5854 5852 5849 5847 5845 5842 5840 5836 5832 5829 5825 5821 5818 5815 5812 5808 5805 5802 5799 5796 5794 5792 5790 5789 5787
5860 5860 5860 5861 5862 5862 5862 5862 5861 5861 5860 5859 5859 5857 5856 5855 5854 5853 5851 5850 5848 5846 5843 5841 5838 5835 5831 5827 5823 5820 5816 5813 5809 5806 5803 5799 5795 5792 5790 5787 5785 5784 5782 5780
5856 5857 5857 5857 5857 5858 5858 5858 5857 5856 5854 5854 5854 5852 5852 5852 5851 5849 5848 5846 5844 5842 5839 5837 5834 5831 5827 5823 5819 5815 5811 5808 5804 5801 5797 5793 5789 5786 5783 5780 5778 5776 5775 5773
5852 5853 5853 5853 5853 5854 5854 5854 5853 5852 5850 5850 5849 5847 5849 5848 5846 5845 5844 5842 5840 5838 5835 5833 5830 5826 5821 5817 5814 5810 5806 5803 5799 5795 5791 5787 5783 5780 5776 5774 5772 5770 5768 5766
5849 5850 5850 5850 5850 5850 5850 5849 5849 5848 5847 5846 5845 5845 5845 5844 5842 5841 5839 5837 5835 5832 5830 5828 5825 5821 5817 5813 5809 5805 5801 5797 5793 5790 5786 5782 5778 5774 5771 5768 5766 5763 5761 5759
5846 5846 5846 5846 5846 5846 5847 5846 5845 5844 5842 5841 5841 5841 5841 5840 5838 5837 5835 5833 5830 5827 5825 5822 5819 5815 5811 5808 5805 5800 5796 5792 5788 5784 5780 5776 5772 5768 5765 5762 5759 5757 5755 5753
5842 5842 5843 5842 5842 5842 5842 5842 5841 5840 5839 5838 5837 5839 5838 5836 5835 5832 5830 5827 5825 5823 5820 5817 5814 5810 5806 5803 5799 5794 5791 5786 5782 5778 5774 5770 5766 5763 5759 5756 5753 5751 5748 5746
5838 5839 5838 5839 5839 5839 5839 5838 5837 5837 5836 5834 5833 5836 5833 5832 5829 5827 5825 5823 5821 5818 5815 5812 5809 5805 5801 5798 5794 5789 5785 5782 5777 5773 5769 5765 5761 5757 5754 5750 5747 5744 5742 5739
5835 5835 5835 5836 5837 5836 5835 5834 5833 5833 5832 5831 5830 5832 5828 5827 5824 5822 5821 5819 5816 5814 5811 5807 5804 5800 5797 5793 5788 5785 5781 5776 5772 5768 5763 5759 5755 5752 5748 5744 5741 5738 5735 5733
5831 5831 5832 5832 5832 5831 5831 5830 5829 5828 5827 5826 5826 5825 5823 5822 5820 5819 5816 5814 5812 5809 5806 5803 5800 5796 5792 5788 5784 5780 5775 5771 5767 5762 5758 5753 5749 5746 5743 5739 5735 5732 5730 5727
5827 5827 5827 5827 5827 5827 5826 5826 5825 5824 5823 5822 5821 5820 5819 5818 5816 5814 5811 5809 5807 5804 5801 5799 5795 5791 5787 5783 5779 5775 5771 5766 5762 5757 5753 5748 5745 5741 5737 5734 5730 5727 5724 5721
5823 5823 5823 5823 5823 5822 5822 5822 5821 5820 5818 5817 5816 5815 5814 5812 5810 5808 5806 5804 5802 5799 5796 5793 5789 5786 5782 5778 5774 5770 5766 5762 5757 5753 5748 5744 5740 5736 5732 5729 5725 5722 5718 5715
5818 5818 5818 5818 5818 5817 5818 5817 5816 5815 5813 5813 5811 5811 5809 5807 5805 5804 5801 5799 5797 5794 5791 5787 5784 5780 5776 5772 5768 5765 5761 5756 5752 5748 5743 5739 5735 5731 5727 5723 5720 5716 5712 5709
5813 5813 5813 5813 5814 5813 5815 5812 5811 5810 5809 5808 5807 5806 5804 5803 5801 5799 5796 5794 5791 5788 5785 5781 5778 5774 5770 5767 5763 5759 5755 5751 5747 5742 5738 5734 5730 5726 5722 5718 5714 5710 5707 5704
5808 5808 5807 5807 5807 5808 5808 5806 5806 5805 5804 5803 5802 5801 5799 5797 5795 5793 5791 5788 5786 5782 5779 5776 5772 5769 5765 5761 5757 5753 5749 5745 5741 5737 5733 5729 5725 5721 5717 5713 5709 5705 5702 5698
5802 5802 5802 5801 5801 5801 5803 5801 5800 5801 5799 5798 5796 5795 5793 5791 5790 5788 5785 5783 5780 5777 5773 5770 5766 5763 5759 5756 5751 5747 5744 5739 5735 5732 5728 5723 5719 5715 5711 5707 5703 5700 5696 5693
5796 5796 5796 5796 5795 5795 5796 5795 5795 5795 5795 5792 5790 5789 5787 5785 5784 5782 5779 5777 5774 5771 5768 5764 5761 5757 5753 5750 5746 5742 5738 5734 5730 5726 5722 5718 5714 5710 5706 5702 5698 5694 5691 5688
5790 5790 5790 5790 5790 5792 5790 5789 5789 5789 5787 5786 5785 5783 5781 5779 5777 5775 5773 5771 5768 5765 5761 5758 5754 5751 5747 5744 5740 5736 5732 5729 5725 5721 5716 5712 5708 5704 5700 5696 5693 5689 5686 5683
5784 5785 5784 5785 5786 5784 5783 5783 5782 5782 5781 5780 5778 5776 5775 5773 5771 5769 5767 5764 5761 5758 5755 5752 5748 5745 5741 5738 5734 5730 5727 5723 5719 5715 5711 5707 5703 5699 5695 5691 5688 5684 5681 5678
5777 5777 5777 5777 5777 5777 5777 5776 5775 5775 5774 5773 5771 5770 5769 5767 5765 5762 5760 5757 5754 5751 5748 5745 5742 5739 5735 5731 5728 5724 5720 5716 5712 5709 5705 5701 5697 5693 5690 5685 5682 5679 5676 5673
5769 5770 5770 5770 5770 5769 5769 5768 5768 5767 5767 5766 5764 5763 5761 5759 5757 5755 5752 5749 5746 5744 5741 5738 5735 5732 5728 5725 5721 5718 5714 5710 5706 5703 5699 5695 5691 5688 5684 5681 5677 5674 5671 5667
5762 5762 5763 5763 5763 5763 5762 5761 5760 5760 5759 5758 5757 5755 5753 5751 5749 5746 5744 5742 5739 5736 5734 5731 5728 5725 5721 5718 5714 5711 5707 5703 5700 5696 5693 5689 5685 5682 5679 5675 5672 5669 5666 5663